[[{"header":{"parameterUnit":"m.s-1","parameterCategory":1,"la1":30.2991,"la2":30.254,"lo1":-89.0895,"lo2":-89.0444,"dy":0.0017,"dx":0.0017,"nx":28,"ny":28,"refTime":"2024-05-15T03:00:00:Z","depth":0,"parameterNumber":2,"parameterNumberName":"U-component_of_WINDS"},"data":[0,0,0,0,0,0,0,0,0,0,0,0,0,0,0,0,0,0,0,0,0,0,0,0,0,0,0,0,0,0,0,0,0,0,0,0,0,0,0,0,0,0,0,0,0,0,0,0,0,0,0,0,0,0,0,0,0,0,-0.0284,-0.0284,0,-0.0291,-0.0292,-0.0292,-0.0353,-0.0354,-0.0356,-0.0357,-0.0362,-0.0361,-0.036,0,0,0,0,0,0,0,0,0,0,0,0,0,-0.0319,-0.0318,-0.0284,-0.0284,-0.0284,-0.0291,-0.0292,-0.0292,-0.0353,-0.0355,-0.0356,-0.0358,-0.0363,-0.0361,-0.036,0,0,0,0,0,0,0,0,0,0,0,0,0,-0.0313,-0.0318,-0.0284,-0.0315,-0.0318,-0.0291,-0.0292,-0.0292,-0.0352,-0.0355,-0.0357,-0.0359,-0.0363,-0.0361,-0.0359,-0.0302,0,0,-0.0354,-0.0353,0,0,0,0,0,0,0,0,-0.0313,-0.0312,-0.0311,-0.0313,-0.0316,-0.0324,-0.0306,-0.0295,-0.0352,-0.0339,-0.0357,-0.036,-0.0347,-0.0347,-0.0343,-0.0302,-0.0302,-0.0353,-0.0352,-0.0351,-0.0351,0,0,0,0,0,0,0,-0.0314,-0.0312,-0.0287,-0.031,-0.0314,-0.0328,-0.033,-0.0304,-0.033,-0.0341,-0.0345,-0.0345,-0.0349,-0.0345,-0.0344,-0.0302,-0.0353,-0.0352,-0.0351,-0.035,-0.0215,-0.0212,0,0,0,0,0,0,-0.031,-0.0312,-0.0286,-0.0287,-0.0321,-0.0326,-0.0328,-0.0319,-0.0331,-0.0335,-0.0343,-0.0348,-0.0347,-0.0346,-0.0344,-0.0278,-0.0351,-0.035,-0.0349,-0.0217,-0.0214,-0.0212,0,0,0,0,0,0,-0.0311,-0.0307,-0.0286,-0.0301,-0.0299,-0.0323,-0.0312,-0.0318,-0.0314,-0.0333,-0.0338,-0.0334,-0.0349,-0.0347,-0.0312,-0.0279,-0.0349,-0.0347,-0.022,-0.0216,-0.0213,-0.0144,0,0,0,0,0,0,-0.0311,-0.0307,-0.0286,-0.03,-0.0298,-0.0254,-0.031,-0.0316,-0.031,-0.0317,-0.0326,-0.0329,-0.0351,-0.0315,-0.031,-0.0277,-0.0345,-0.0223,-0.0218,-0.0214,-0.0149,-0.0138,-0.0129,0,0,0,0,0,-0.0312,-0.0265,-0.0284,-0.0281,-0.0272,-0.0252,-0.0251,-0.0278,-0.0307,-0.0286,-0.0299,-0.0329,-0.0283,-0.0311,-0.0306,-0.0272,-0.0225,-0.022,-0.0214,-0.0154,-0.014,-0.0129,0,0,0,0,0,0,-0.0246,-0.0268,-0.0289,-0.0245,-0.0247,-0.0263,-0.0236,-0.0263,-0.0255,-0.0261,-0.0293,-0.0295,-0.0255,-0.026,-0.029,-0.0217,-0.026,-0.0253,-0.0215,-0.0202,-0.0192,-0.0191,-0.0344,0,0,0,0,0,-0.0226,-0.0209,-0.0229,-0.0188,-0.0188,-0.0212,-0.0204,-0.0225,-0.0227,-0.0228,-0.0238,-0.0238,-0.0224,-0.0214,-0.0202,-0.0151,-0.0153,-0.0125,-0.0115,-0.0106,-0.01,-0.0073,-0.0061,-0.0194,-0.0194,-0.0194,0,0,-0.0185,-0.0195,-0.0182,-0.0175,-0.0179,-0.0159,-0.0212,-0.0189,-0.0175,-0.0224,-0.0192,-0.0199,-0.0202,-0.0159,-0.014,-0.0162,-0.0064,-0.0099,-0.0092,-0.0091,-0.0066,-0.0054,-0.0042,-0.019,-0.0191,-0.0191,0,0,-0.01,-0.0106,-0.0073,-0.0076,-0.0081,-0.0097,-0.0089,-0.0102,-0.0109,-0.0078,-0.0114,-0.0097,-0.0072,-0.0072,-0.0069,0.0014,-0.0013,0.0019,0.0073,0.0099,0.011,0.0119,0.0149,0.016,0.0025,0.0026,0.0026,0,-0.0048,-0.0022,-0.0052,-0.0028,-0.0024,-0.0068,-0.0034,-0.0035,-0.0035,-0.0031,-0.0056,-0.0026,-0.0031,0.0012,0.0032,0.0036,0.0045,0.0021,0.011,0.0119,0.0127,0.0156,0.0168,0.003,0.0029,0.0029,0.0028,0,0.0043,0.0062,0.0089,0.0089,0.0096,0.0125,0.0099,0.0111,0.0089,0.0076,0.0108,0.0101,0.011,0.0118,0.0099,0.0158,0.0145,0.0116,0.0073,0.0145,0.0171,0.0182,0.0035,0.0034,0.0033,0.0032,0,0,0.0171,0.0152,0.0163,0.0162,0.0152,0.0167,0.0194,0.0202,0.0213,0.0214,0.0236,0.0258,0.0231,0.0234,0.0214,0.0237,0.0304,0.0205,0.0204,0.0224,0.037,0.0393,0.0406,0.0285,0.0287,0.0289,0.037,0,0.0253,0.0297,0.027,0.0319,0.0336,0.0294,0.0317,0.0315,0.0303,0.0316,0.0303,0.0319,0.0281,0.0283,0.0304,0.0291,0.0333,0.0285,0.0307,0.0308,0.031,0.0419,0.0443,0.0521,0.038,0.0382,0.0383,0,0.0354,0.0359,0.0409,0.0396,0.0402,0.0424,0.0429,0.0442,0.0438,0.0428,0.0432,0.0405,0.0431,0.0388,0.0424,0.0392,0.0399,0.0394,0.0397,0.0399,0.0351,0.0425,0.0545,0.0557,0.0399,0.0398,0.0397,0,0.0443,0.0462,0.0494,0.0495,0.048,0.0496,0.0491,0.0485,0.0491,0.0496,0.05,0.0508,0.0513,0.0521,0.0497,0.0467,0.0537,0.0491,0.053,0.053,0.0547,0.0547,0.0671,0.055,0.055,0.055,0.055,0,0.0538,0.0571,0.0534,0.0554,0.059,0.0558,0.0594,0.0585,0.0579,0.0597,0.0561,0.0579,0.0546,0.0561,0.0543,0.0576,0.0579,0.0571,0.0566,0.0575,0.0576,0.058,0.0575,0.0553,0.0552,0.0552,0.0551,0,0.0644,0.062,0.0653,0.0636,0.0632,0.0659,0.0645,0.0664,0.0648,0.0672,0.0675,0.0652,0.0668,0.0644,0.0658,0.0646,0.0691,0.0678,0.0693,0.0689,0.0729,0.0726,0.0861,0.0877,0.0746,0.0747,0.0748,0,0.0706,0.073,0.0715,0.0724,0.0721,0.0736,0.0742,0.0712,0.072,0.0717,0.0736,0.0748,0.0756,0.0783,0.0768,0.0778,0.0765,0.0811,0.0766,0.0774,0.0766,0.0766,0.0768,0.0821,0.0823,0.0824,0.0825,0,0.082,0.0807,0.0816,0.0822,0.083,0.0834,0.0835,0.0844,0.0812,0.0823,0.0838,0.0844,0.0857,0.087,0.0876,0.0871,0.0844,0.0839,0.0849,0.0858,0.0866,0.0863,0.0719,0.0837,0.0835,0.0835,0.0834,0.0834,0.0906,0.0925,0.0918,0.093,0.0927,0.0928,0.0945,0.0931,0.0943,0.095,0.0931,0.0951,0.0946,0.0951,0.095,0.0965,0.0945,0.0958,0.0962,0.0966,0.0973,0.0863,0.0966,0.0965,0.0965,0.0965,0.0965,0,0.1018,0.1011,0.1022,0.1024,0.1034,0.1005,0.1004,0.1014,0.1032,0.1029,0.1037,0.1055,0.1067,0.1052,0.1062,0.1077,0.1064,0.1081,0.108,0.1079,0.099,0.0981,0.1091,0.1091,0.1091,0.1091,0.1091,0.109,0.1078,0.1109,0.1095,0.1124,0.1117,0.1135,0.1137,0.1138,0.1136,0.1157,0.1166,0.1156,0.1149,0.1157,0.1168,0.1163,0.1169,0.119,0.1181,0.1098,0.1085,0.1074,0.1065,0.1191,0.1191,0.1269,0.1269,0.127]},{"header":{"parameterUnit":"m.s-1","parameterCategory":1,"la1":30.2991,"la2":30.254,"lo1":-89.0895,"lo2":-89.0444,"dy":0.0017,"dx":0.0017,"nx":28,"ny":28,"refTime":"2024-05-15T03:00:00:Z","depth":0,"parameterNumber":3,"parameterNumberName":"V-component_of_WINDS"},"data":[0,0,0,0,0,0,0,0,0,0,0,0,0,0,0,0,0,0,0,0,0,0,0,0,0,0,0,0,0,0,0,0,0,0,0,0,0,0,0,0,0,0,0,0,0,0,0,0,0,0,0,0,0,0,0,0,0,0,0.3901,0.3901,0,0.3843,0.3842,0.3841,0.383,0.383,0.3831,0.3831,0.3772,0.377,0.3768,0,0,0,0,0,0,0,0,0,0,0,0,0,0.4004,0.4002,0.3901,0.3901,0.39,0.3843,0.3842,0.3841,0.383,0.383,0.3831,0.3831,0.3772,0.377,0.3768,0,0,0,0,0,0,0,0,0,0,0,0,0,0.3954,0.4001,0.3901,0.3887,0.3885,0.3843,0.3842,0.3841,0.383,0.383,0.3831,0.3832,0.3773,0.377,0.3767,0.3735,0,0,0.3758,0.3757,0,0,0,0,0,0,0,0,0.3957,0.395,0.389,0.3888,0.3886,0.3844,0.3856,0.3806,0.3829,0.3851,0.3831,0.3832,0.3795,0.379,0.3778,0.3732,0.373,0.3758,0.3756,0.3755,0.3754,0,0,0,0,0,0,0,0.396,0.3952,0.3878,0.3889,0.3887,0.3884,0.3878,0.3847,0.382,0.3849,0.3848,0.3841,0.3794,0.3781,0.3777,0.3729,0.3758,0.3755,0.3753,0.3752,0.3655,0.3654,0,0,0,0,0,0,0.3966,0.3955,0.388,0.3876,0.3924,0.3882,0.3874,0.3857,0.382,0.3815,0.3841,0.3841,0.3786,0.378,0.3774,0.3735,0.3755,0.3752,0.375,0.3656,0.3655,0.3654,0,0,0,0,0,0,0.3968,0.3959,0.3882,0.3916,0.3906,0.3879,0.386,0.3855,0.3842,0.3814,0.3809,0.3832,0.3786,0.3779,0.3745,0.3733,0.375,0.3748,0.3656,0.3655,0.3654,0.3656,0,0,0,0,0,0,0.3971,0.396,0.3948,0.3915,0.3904,0.3854,0.3859,0.3854,0.3837,0.3837,0.3805,0.38,0.3786,0.375,0.3742,0.3729,0.3745,0.3657,0.3656,0.3655,0.3657,0.3655,0.3653,0,0,0,0,0,0.3975,0.395,0.3947,0.3938,0.3887,0.3853,0.3847,0.3831,0.3836,0.3823,0.3805,0.3801,0.3735,0.3746,0.3738,0.3724,0.3658,0.3656,0.3655,0.3658,0.3655,0.3653,0,0,0,0,0,0,0.3982,0.3946,0.3942,0.3906,0.3883,0.3851,0.3835,0.3829,0.3804,0.3805,0.3787,0.378,0.3747,0.3732,0.3745,0.3691,0.3697,0.3694,0.3702,0.37,0.3698,0.3703,0.3743,0,0,0,0,0,0.3979,0.3954,0.3924,0.3895,0.3884,0.3861,0.3846,0.3836,0.3811,0.3801,0.3781,0.3757,0.3731,0.3715,0.3689,0.3654,0.3648,0.3641,0.3639,0.3637,0.3635,0.3616,0.3613,0.3648,0.3648,0.3648,0,0,0.3974,0.3951,0.3936,0.3896,0.3877,0.3852,0.3853,0.3826,0.3808,0.3797,0.3765,0.3749,0.3721,0.3687,0.3671,0.3673,0.3624,0.3635,0.3634,0.3632,0.3614,0.3611,0.3608,0.3647,0.3647,0.3647,0,0,0.3951,0.3931,0.3905,0.3886,0.3857,0.3842,0.3836,0.3805,0.3794,0.3761,0.3753,0.373,0.3686,0.3667,0.3651,0.3621,0.3617,0.3613,0.3605,0.3587,0.3584,0.3581,0.3571,0.3568,0.3611,0.3611,0.3611,0,0.3948,0.3909,0.3892,0.3866,0.3849,0.3838,0.3813,0.3795,0.3759,0.3748,0.3751,0.3695,0.3676,0.3637,0.363,0.3618,0.3611,0.3617,0.3585,0.3583,0.358,0.3571,0.3567,0.3611,0.3611,0.3611,0.3611,0,0.3907,0.388,0.3863,0.3829,0.381,0.3784,0.3764,0.3747,0.3738,0.3723,0.369,0.3666,0.3636,0.3626,0.3618,0.3587,0.3589,0.3589,0.3595,0.3577,0.3568,0.3564,0.361,0.3611,0.3611,0.3611,0,0,0.3887,0.3844,0.3838,0.3823,0.379,0.3769,0.3743,0.3713,0.3699,0.3675,0.3653,0.3616,0.3616,0.3598,0.3587,0.3571,0.355,0.3573,0.3572,0.357,0.3516,0.3517,0.3513,0.3547,0.3546,0.3545,0.3518,0,0.3861,0.3813,0.3798,0.3759,0.3735,0.3724,0.3701,0.3679,0.3664,0.3642,0.3625,0.36,0.3601,0.359,0.3574,0.3556,0.3539,0.3558,0.3527,0.3526,0.3535,0.3508,0.3508,0.3484,0.3514,0.3514,0.3513,0,0.3824,0.3799,0.3758,0.3728,0.3718,0.3697,0.3669,0.3648,0.3622,0.3613,0.3593,0.3584,0.3557,0.3564,0.3526,0.3539,0.3525,0.3515,0.3513,0.3511,0.3519,0.3505,0.3476,0.3473,0.3507,0.3508,0.3508,0,0.3815,0.3771,0.374,0.3727,0.3692,0.3679,0.3663,0.3638,0.3622,0.3598,0.3587,0.3559,0.3545,0.3524,0.3508,0.3514,0.3472,0.3477,0.3464,0.3464,0.3456,0.3457,0.3425,0.3446,0.3446,0.3446,0.3446,0,0.3787,0.3763,0.3736,0.3717,0.3689,0.3672,0.3645,0.3629,0.3607,0.3586,0.3575,0.3555,0.3534,0.3512,0.3499,0.347,0.3463,0.3455,0.3452,0.3456,0.3458,0.3448,0.3449,0.3445,0.3445,0.3445,0.3445,0,0.3773,0.3754,0.372,0.3689,0.3681,0.3662,0.3636,0.3618,0.3603,0.3576,0.3569,0.3545,0.3518,0.3499,0.3465,0.3456,0.3425,0.3422,0.3434,0.3432,0.342,0.3422,0.3382,0.3376,0.34,0.34,0.3399,0,0.3757,0.3738,0.3705,0.369,0.3675,0.365,0.3633,0.3615,0.3598,0.3568,0.3554,0.3526,0.3503,0.346,0.344,0.3414,0.341,0.3398,0.3406,0.3412,0.3411,0.3413,0.3411,0.3397,0.3397,0.3397,0.3397,0,0.3731,0.3723,0.3699,0.3672,0.3652,0.3629,0.3607,0.3595,0.3573,0.3555,0.3527,0.3509,0.3474,0.3447,0.3418,0.3403,0.3396,0.3394,0.339,0.3394,0.3402,0.3399,0.3431,0.3395,0.3395,0.3395,0.3396,0.3396,0.3716,0.3699,0.3673,0.3647,0.3628,0.3608,0.3589,0.3572,0.3548,0.3518,0.3509,0.348,0.3456,0.3417,0.3401,0.3379,0.338,0.3373,0.3372,0.3371,0.3371,0.3405,0.3374,0.3374,0.3374,0.3374,0.3374,0,0.369,0.3674,0.365,0.3619,0.3598,0.3593,0.3568,0.3552,0.3527,0.3504,0.3482,0.345,0.3424,0.3402,0.3375,0.3361,0.3357,0.3355,0.3356,0.3352,0.3372,0.3378,0.3358,0.3358,0.3358,0.3358,0.3358,0.3358,0.3675,0.3645,0.3634,0.3596,0.3579,0.3551,0.3537,0.3518,0.35,0.3466,0.3444,0.3429,0.3407,0.3378,0.3354,0.3348,0.3339,0.3337,0.3331,0.3349,0.3351,0.3353,0.3359,0.3335,0.3335,0.3314,0.3313,0.3313]}]]